Regional Weather Roundup
Issued by NWS

Home | Current Version | Previous Version | Graphics & Text | Print | Product List | Glossary On
Versions: 1 2 3 4 5 6 7 8 9 10 11 12 13 14 15 16 17 18 19 20 21 22 23 24 25 26 27 28 29 30 31 32 33 34 35 36 37 38 39 40 41 42 43 44 45 46 47 48 49 50
000
ASUS43 KLOT 272103
RWRIL

ILLINOIS REGIONAL WEATHER ROUNDUP
NATIONAL WEATHER SERVICE CHICAGO/ROMEOVILLE IL
400 PM CDT WED JUL 27 2016

NOTE: "FAIR" INDICATES FEW OR NO CLOUDS BELOW 12,000 FEET WITH NO
SIGNIFICANT WEATHER AND/OR OBSTRUCTIONS TO VISIBILITY.

* THESE STATIONS ARE NOT UNDER NWS QUALITY CONTROL. THEY ALSO MAY NOT
  REPORT WEATHER SUCH AS PRECIPITATION OR FOG.

ILZ001-002-007-009-015-016-024-272200-
NORTHWEST ILLINOIS

CITY           SKY/WX    TMP DP  RH WIND       PRES   REMARKS
MOLINE         MOSUNNY   87  67  51 SW5       29.94F HX  90
STERLING*      MOSUNNY   85  70  60 CALM      29.96F HX  89
SAVANNA*       MOSUNNY   86  68  53 SW6       29.95F HX  89
$$

ILZ003-004-008-010-011-017-018-272200-
NORTH CENTRAL ILLINOIS

CITY           SKY/WX    TMP DP  RH WIND       PRES   REMARKS
ROCKFORD       PTSUNNY   87  66  49 S5        29.97F HX  89
FREEPORT*      MOSUNNY   83  66  57 CALM      29.99S HX  85
ROCHELLE*      MOSUNNY   83  71  64 W3        29.97F HX  88
DE KALB*       PTSUNNY   84  69  62 S7        29.98S HX  87
$$

ILZ005-006-012>014-019>023-272200-
NORTHEAST ILLINOIS

CITY           SKY/WX    TMP DP  RH WIND       PRES   REMARKS
CHICAGO-OHARE  PTSUNNY   87  61  41 S6        29.93F HX  87
CHICAGO-MIDWAY PTSUNNY   89  64  43 W12       29.93F HX  90
AURORA         MOSUNNY   87  68  52 SW7       29.96F HX  90
LANSING*       SUNNY     86  64  48 S7        29.95S HX  87
WAUKEGAN       MOSUNNY   85  66  53 E7        29.95S HX  87
DUPAGE AIRPORT SUNNY     87  62  43 S7        29.95F HX  87
KANKAKEE*      SUNNY     88  64  45 S3        29.96F HX  89
WHEELING       CLOUDY    88  63  43 NE5       29.95F HX  89
MORRIS*        MOSUNNY   85  68  57 CALM      29.94F HX  88
NORTHERLY ISL    N/A     81  70  69 E8          N/A  HX  84
$$

LMZ740>746-272200-
SOUTHERN LAKE MICHIGAN

STATION/POSITION SKY/WX   TEMP    WIND        PRES    VSBY  WAVE
                          AIR SEA DIR/SP/G                  HT/PER
                          (F)     (DEG/KT/KT) (MB)    (MI)  (FT/S)
SOUTHERN BUOY              77 77  160/  6/  6 1014.2          0
WILMETTE HARBOR            77 73  140/  6/  8   N/A           1
HARRISON CRIB              80      90/ 10/ 11   N/A
BURNHAM HARBOR             81      80/  3/ 10   N/A
CALUMET HARBOR             79      50/  8/ 10 1013.8F
BURNS HARBOR               80      80/ 10/ 11 1014.9F
MICHIGAN CITY              78      20/  6/  6   N/A
MICHIGAN CITY 6N           79 78   50/  6/  6   N/A           0
ST. JOSEPH                 78     330/  4/  4 1014.8F         0
$$

ILZ025>027-034>036-040-047-049-050-058-095>099-272200-
WEST-CENTRAL ILLINOIS

CITY           SKY/WX    TMP DP  RH WIND       PRES   REMARKS
QUINCY         MOSUNNY   88  73  61 VRB3      29.93F HX  95
GALESBURG*     MOSUNNY   85  69  57 S3        29.96S HX  89
MACOMB*        PTSUNNY   85  72  63 CALM      29.97S HX  91
JACKSONVILLE*  SUNNY     84  75  73 SE10      29.94F HX  92
PITTSFIELD*    PTSUNNY   88  77  69 SE3       29.94F HX  99
$$

ILZ028>032-037-038-041>044-048-051>054-059>061-272200-
CENTRAL ILLINOIS

CITY           SKY/WX    TMP DP  RH WIND       PRES   REMARKS
PONTIAC        HAZE      86  72  63 SE6       29.96F VSB 1   HX  92
BLOOMINGTON    MOSUNNY   84  69  60 SE9       29.97F HX  88
DECATUR        CLOUDY    86  73  65 E6        29.96F HX  93
PEORIA         MOSUNNY   86  70  58 VRB6      29.94F HX  90
LACON*         PTSUNNY   86  67  53 CALM      29.94F HX  88
LINCOLN*       MOSUNNY   87  74  65 SE7       29.94F HX  95
SPRINGFIELD    MOSUNNY   86  75  69 SE10      29.94F HX  95
TAYLORVILLE    CLOUDY    81  76  84 MISG      29.96F HX  87
$$

ILZ033-039-045-046-055>057-062-063-272200-
EAST-CENTRAL ILLINOIS

CITY           SKY/WX    TMP DP  RH WIND       PRES   REMARKS
CHAMPAIGN      PTSUNNY   80  71  74 SE5       29.97F HX  84
MATTOON        CLOUDY    83  71  67 CALM      29.96S HX  87
PARIS*         CLOUDY    85  71  63 CALM      29.97F HX  90
$$

ILZ079-100>102-272200-
SOUTHWEST ILLINOIS

CITY           SKY/WX    TMP DP  RH WIND       PRES   REMARKS
ALTON          MOSUNNY   86  73  66 SE6       29.94F HX  93
BELLEVILLE     CLOUDY    87  76  71 CALM      29.93S HX  97
CAHOKIA*       MOSUNNY   90  74  59 SE7       29.92F HX  99
SPARTA*        MOSUNNY   84  76  75 CALM      29.94F HX  93
$$

ILZ064>066-069>071-074>076-080>082-084>086-088>090-092>094-272200-
SOUTH-CENTRAL ILLINOIS

CITY           SKY/WX    TMP DP  RH WIND       PRES   REMARKS
CARBONDALE     MOSUNNY   89  74  60 CALM      29.92S HX  98
CAIRO*         CLOUDY    90  78  68 CALM      29.89F THUNDER HX 105
EFFINGHAM*     CLOUDY    85  76  73 CALM      29.97S HX  94
MARION         PTSUNNY   90  79  70 N8        29.93F HX 105
MT. VERNON     MOSUNNY   90  73  58 MISG      29.92F HX  98
CENTRALIA*     CLOUDY    87  77  73 CALM      29.94S HX  98
SALEM*         CLOUDY    87  75  66 N3        29.95R HX  96
METROPOLIS*    CLOUDY    89  76  66 S5        29.90F HX 100
$$

ILZ067-068-072-073-078-083-087-091-272200-
SOUTHEAST ILLINOIS

CITY           SKY/WX    TMP DP  RH WIND       PRES   REMARKS
LAWRENCEVILLE  MOSUNNY   87  75  67 NE7       29.94F HX  96
FLORA*         CLOUDY    87  75  66 NE5       29.95S HX  97
FAIRFIELD*     CLOUDY    85  78  78 N3        29.93S HX  97
HARRISBURG*    TSTM      78  76  91 N6        29.94S HX  81
ROBINSON*      CLOUDY    85  73  67 CALM      29.96S HX  91
CARMI*         CLOUDY    81  75  83 N3        29.92F HX  87
$$

ABBREVIATIONS USED IN REMARKS
   TC - TEMPERATURE IN CELSIUS
  WCI - WIND CHILL INDEX
   HX - HEAT INDEX
  VSB - VISIBILITY
$$





USA.gov is the U.S. government's official web portal to all federal, state and local government web resources and services.